Time,TemperatureF,DewpointF,PressureIn,WindDirection,WindDirectionDegrees,WindSpeedMPH,WindSpeedGustMPH,Humidity,HourlyPrecipIn,Conditions,Clouds,dailyrainin,SolarRadiationWatts/m^2,SoftwareType,DateUTC
2013-04-23 00:00:00,41.1,34.0,30.56,NNE,32,0.0,-999.0,76,-99.99,,,0.00,0,weatherlink.com 1.10,2013-04-23 04:00:00,
2013-04-23 00:15:00,41.1,34.0,30.55,East,96,0.0,-999.0,77,-99.99,,,0.00,0,weatherlink.com 1.10,2013-04-23 04:15:00,
2013-04-23 00:30:00,41.2,35.0,30.54,ESE,121,0.0,-999.0,77,-99.99,,,0.00,0,weatherlink.com 1.10,2013-04-23 04:30:00,
2013-04-23 00:45:00,41.2,35.0,30.54,ENE,74,0.0,-999.0,78,-99.99,,,0.00,0,weatherlink.com 1.10,2013-04-23 04:45:00,
2013-04-23 01:00:00,41.2,35.0,30.53,East,100,0.0,-999.0,79,-99.99,,,0.00,0,weatherlink.com 1.10,2013-04-23 05:00:00,
2013-04-23 01:15:00,41.3,35.0,30.52,East,98,0.0,-999.0,79,-99.99,,,0.00,0,weatherlink.com 1.10,2013-04-23 05:15:00,
2013-04-23 01:30:00,41.4,36.0,30.52,NE,42,0.0,-999.0,80,-99.99,,,0.00,0,weatherlink.com 1.10,2013-04-23 05:30:00,
2013-04-23 01:45:00,41.5,36.0,30.52,SE,131,0.0,-999.0,81,-99.99,,,0.00,0,weatherlink.com 1.10,2013-04-23 05:45:00,
2013-04-23 02:00:00,41.5,36.0,30.51,East,96,0.0,-999.0,82,-99.99,,,0.00,0,weatherlink.com 1.10,2013-04-23 06:00:00,
2013-04-23 02:15:00,41.5,36.0,30.50,NNW,328,0.0,-999.0,82,-99.99,,,0.00,0,weatherlink.com 1.10,2013-04-23 06:15:00,
2013-04-23 02:30:00,41.6,37.0,30.49,NNW,346,1.0,-999.0,83,-99.99,,,0.00,0,weatherlink.com 1.10,2013-04-23 06:30:00,
2013-04-23 02:45:00,41.6,37.0,30.49,East,97,0.0,-999.0,83,-99.99,,,0.00,0,weatherlink.com 1.10,2013-04-23 06:45:00,
2013-04-23 03:00:00,41.7,37.0,30.49,East,81,0.0,-999.0,83,-99.99,,,0.00,0,weatherlink.com 1.10,2013-04-23 07:00:00,
2013-04-23 03:15:00,41.8,37.0,30.48,NE,34,0.0,-999.0,84,-99.99,,,0.00,0,weatherlink.com 1.10,2013-04-23 07:15:00,
2013-04-23 03:30:00,41.8,37.0,30.48,North,349,0.0,-999.0,84,-99.99,,,0.00,0,weatherlink.com 1.10,2013-04-23 07:30:00,
2013-04-23 03:45:00,41.8,38.0,30.47,ESE,111,0.0,-999.0,85,-99.99,,,0.00,0,weatherlink.com 1.10,2013-04-23 07:45:00,
2013-04-23 04:00:00,41.7,38.0,30.47,ESE,107,0.0,-999.0,86,-99.99,,,0.00,0,weatherlink.com 1.10,2013-04-23 08:00:00,
2013-04-23 04:15:00,41.3,38.0,30.47,NE,49,0.0,-999.0,89,-99.99,,,0.00,0,weatherlink.com 1.10,2013-04-23 08:15:00,
2013-04-23 04:30:00,41.0,38.0,30.48,East,80,0.0,-999.0,90,-99.99,,,0.00,0,weatherlink.com 1.10,2013-04-23 08:30:00,
2013-04-23 04:45:00,40.9,39.0,30.46,NNE,21,0.0,-999.0,91,-99.99,,,0.01,0,weatherlink.com 1.10,2013-04-23 08:45:00,
2013-04-23 05:00:00,40.7,39.0,30.46,East,96,4.0,-999.0,92,-99.99,,,0.01,0,weatherlink.com 1.10,2013-04-23 09:00:00,
2013-04-23 05:15:00,40.7,39.0,30.46,East,87,0.0,-999.0,93,-99.99,,,0.01,0,weatherlink.com 1.10,2013-04-23 09:15:00,
2013-04-23 05:30:00,40.7,39.0,30.46,NE,51,0.0,-999.0,93,-99.99,,,0.01,0,weatherlink.com 1.10,2013-04-23 09:30:00,
2013-04-23 05:45:00,40.7,39.0,30.46,SE,146,4.0,-999.0,94,-99.99,,,0.01,0,weatherlink.com 1.10,2013-04-23 09:45:00,
2013-04-23 06:00:00,40.8,39.0,30.45,NE,49,0.0,-999.0,94,-99.99,,,0.02,0,weatherlink.com 1.10,2013-04-23 10:00:00,
2013-04-23 06:16:00,40.8,39.0,30.45,SSE,163,0.0,-999.0,94,-99.99,,,0.02,0,weatherlink.com 1.10,2013-04-23 10:16:00,
2013-04-23 06:31:00,40.9,40.0,30.44,NE,43,0.0,-999.0,95,-99.99,,,0.02,5,weatherlink.com 1.10,2013-04-23 10:31:00,
2013-04-23 06:46:00,41.0,40.0,30.45,SE,129,0.0,-999.0,95,-99.99,,,0.03,9,weatherlink.com 1.10,2013-04-23 10:46:00,
2013-04-23 07:01:00,41.0,40.0,30.43,North,11,1.0,-999.0,95,-99.99,,,0.03,9,weatherlink.com 1.10,2013-04-23 11:01:00,
2013-04-23 07:16:00,41.2,40.0,30.43,ESE,106,5.0,-999.0,95,-99.99,,,0.03,12,weatherlink.com 1.10,2013-04-23 11:16:00,
2013-04-23 07:31:00,41.4,40.0,30.44,East,92,0.0,-999.0,95,-99.99,,,0.03,18,weatherlink.com 1.10,2013-04-23 11:31:00,
2013-04-23 07:46:00,41.6,40.0,30.43,NNW,333,4.0,-999.0,95,-99.99,,,0.03,30,weatherlink.com 1.10,2013-04-23 11:46:00,
2013-04-23 08:01:00,41.7,40.0,30.43,ENE,57,0.0,-999.0,95,-99.99,,,0.03,26,weatherlink.com 1.10,2013-04-23 12:01:00,
2013-04-23 08:16:00,41.9,41.0,30.43,WNW,292,1.0,-999.0,95,-99.99,,,0.03,25,weatherlink.com 1.10,2013-04-23 12:16:00,
2013-04-23 08:31:00,42.0,41.0,30.43,NNW,348,1.0,-999.0,95,-99.99,,,0.03,23,weatherlink.com 1.10,2013-04-23 12:31:00,
2013-04-23 08:46:00,42.1,41.0,30.43,South,181,0.0,-999.0,95,-99.99,,,0.03,30,weatherlink.com 1.10,2013-04-23 12:46:00,
2013-04-23 09:01:00,42.3,41.0,30.42,WNW,292,0.0,-999.0,95,-99.99,,,0.03,33,weatherlink.com 1.10,2013-04-23 13:01:00,
2013-04-23 09:16:00,42.4,41.0,30.41,North,360,0.0,-999.0,95,-99.99,,,0.03,47,weatherlink.com 1.10,2013-04-23 13:16:00,
2013-04-23 09:31:00,42.5,41.0,30.41,NNE,13,0.0,-999.0,95,-99.99,,,0.03,47,weatherlink.com 1.10,2013-04-23 13:31:00,
2013-04-23 09:46:00,42.6,41.0,30.41,NNW,342,6.0,-999.0,95,-99.99,,,0.03,53,weatherlink.com 1.10,2013-04-23 13:46:00,
2013-04-23 10:01:00,42.7,41.0,30.41,North,10,4.0,-999.0,95,-99.99,,,0.04,49,weatherlink.com 1.10,2013-04-23 14:01:00,
2013-04-23 10:16:00,42.9,42.0,30.41,North,5,1.0,-999.0,95,-99.99,,,0.04,70,weatherlink.com 1.10,2013-04-23 14:16:00,
2013-04-23 10:31:00,42.9,42.0,30.40,NNW,348,2.0,-999.0,95,-99.99,,,0.04,67,weatherlink.com 1.10,2013-04-23 14:31:00,
2013-04-23 10:46:00,43.0,42.0,30.41,NE,51,0.0,-999.0,95,-99.99,,,0.04,62,weatherlink.com 1.10,2013-04-23 14:46:00,
2013-04-23 11:01:00,43.2,42.0,30.40,ESE,119,2.0,-999.0,95,-99.99,,,0.04,84,weatherlink.com 1.10,2013-04-23 15:01:00,
2013-04-23 11:16:00,43.3,42.0,30.39,NNW,335,1.0,-999.0,95,-99.99,,,0.04,113,weatherlink.com 1.10,2013-04-23 15:16:00,
2013-04-23 11:31:00,43.4,42.0,30.39,NE,56,0.0,-999.0,95,-99.99,,,0.04,77,weatherlink.com 1.10,2013-04-23 15:31:00,
2013-04-23 11:46:00,43.5,42.0,30.38,North,5,5.0,-999.0,95,-99.99,,,0.04,67,weatherlink.com 1.10,2013-04-23 15:46:00,
2013-04-23 12:01:00,43.4,42.0,30.37,NNW,334,4.0,-999.0,95,-99.99,,,0.04,49,weatherlink.com 1.10,2013-04-23 16:01:00,
2013-04-23 12:16:00,43.4,42.0,30.36,NE,53,0.0,-999.0,95,-99.99,,,0.04,54,weatherlink.com 1.10,2013-04-23 16:16:00,
2013-04-23 12:31:00,43.3,42.0,30.35,North,355,12.0,-999.0,95,-99.99,,,0.04,58,weatherlink.com 1.10,2013-04-23 16:31:00,
2013-04-23 12:46:00,43.3,42.0,30.34,North,355,4.0,-999.0,95,-99.99,,,0.04,51,weatherlink.com 1.10,2013-04-23 16:46:00,
2013-04-23 13:01:00,43.1,42.0,30.34,ESE,118,7.0,-999.0,95,-99.99,,,0.04,60,weatherlink.com 1.10,2013-04-23 17:01:00,
2013-04-23 13:16:00,43.1,42.0,30.33,NNW,348,9.0,-999.0,95,-99.99,,,0.04,60,weatherlink.com 1.10,2013-04-23 17:16:00,
2013-04-23 13:31:00,43.0,42.0,30.32,North,360,6.0,-999.0,95,-99.99,,,0.05,65,weatherlink.com 1.10,2013-04-23 17:31:00,
2013-04-23 13:46:00,43.0,42.0,30.32,ENE,71,6.0,-999.0,95,-99.99,,,0.05,53,weatherlink.com 1.10,2013-04-23 17:46:00,
2013-04-23 14:01:00,42.9,42.0,30.32,North,11,8.0,-999.0,95,-99.99,,,0.05,53,weatherlink.com 1.10,2013-04-23 18:01:00,
2013-04-23 14:17:00,42.9,42.0,30.30,North,355,4.0,-999.0,95,-99.99,,,0.06,51,weatherlink.com 1.10,2013-04-23 18:17:00,
2013-04-23 14:32:00,42.8,42.0,30.29,NNE,15,5.0,-999.0,95,-99.99,,,0.07,63,weatherlink.com 1.10,2013-04-23 18:32:00,
2013-04-23 14:47:00,42.9,42.0,30.28,NNW,346,7.0,-999.0,96,-99.99,,,0.07,70,weatherlink.com 1.10,2013-04-23 18:47:00,
2013-04-23 15:02:00,43.0,42.0,30.27,NNW,338,6.0,-999.0,96,-99.99,,,0.07,54,weatherlink.com 1.10,2013-04-23 19:02:00,
2013-04-23 15:17:00,43.0,42.0,30.27,NNW,346,7.0,-999.0,96,-99.99,,,0.08,51,weatherlink.com 1.10,2013-04-23 19:17:00,
2013-04-23 15:32:00,42.9,42.0,30.26,North,5,6.0,-999.0,96,-99.99,,,0.08,42,weatherlink.com 1.10,2013-04-23 19:32:00,
2013-04-23 15:47:00,43.0,42.0,30.25,NNW,339,0.0,-999.0,96,-99.99,,,0.09,32,weatherlink.com 1.10,2013-04-23 19:47:00,
2013-04-23 16:02:00,42.9,42.0,30.25,North,355,7.0,-999.0,96,-99.99,,,0.09,32,weatherlink.com 1.10,2013-04-23 20:02:00,
2013-04-23 16:17:00,42.9,42.0,30.24,North,10,3.0,-999.0,96,-99.99,,,0.10,28,weatherlink.com 1.10,2013-04-23 20:17:00,
2013-04-23 16:32:00,42.9,42.0,30.24,North,355,10.0,-999.0,96,-99.99,,,0.11,30,weatherlink.com 1.10,2013-04-23 20:32:00,
2013-04-23 16:47:00,42.9,42.0,30.24,NNW,335,7.0,-999.0,96,-99.99,,,0.12,25,weatherlink.com 1.10,2013-04-23 20:47:00,
2013-04-23 17:02:00,42.9,42.0,30.24,NNE,30,3.0,-999.0,96,-99.99,,,0.13,23,weatherlink.com 1.10,2013-04-23 21:02:00,
2013-04-23 17:17:00,43.0,42.0,30.23,NNW,348,5.0,-999.0,96,-99.99,,,0.14,18,weatherlink.com 1.10,2013-04-23 21:17:00,
2013-04-23 17:32:00,42.9,42.0,30.22,NNW,338,18.0,-999.0,96,-99.99,,,0.15,16,weatherlink.com 1.10,2013-04-23 21:32:00,
2013-04-23 17:47:00,42.8,42.0,30.21,NNW,340,10.0,-999.0,96,-99.99,,,0.16,16,weatherlink.com 1.10,2013-04-23 21:47:00,
2013-04-23 18:02:00,42.7,42.0,30.21,North,355,11.0,-999.0,96,-99.99,,,0.17,16,weatherlink.com 1.10,2013-04-23 22:02:00,
2013-04-23 18:17:00,42.7,42.0,30.20,North,11,9.0,-999.0,96,-99.99,,,0.19,16,weatherlink.com 1.10,2013-04-23 22:17:00,
2013-04-23 18:32:00,42.6,42.0,30.19,NNW,334,11.0,-999.0,96,-99.99,,,0.21,11,weatherlink.com 1.10,2013-04-23 22:32:00,
2013-04-23 18:47:00,42.5,42.0,30.19,NW,309,6.0,-999.0,96,-99.99,,,0.21,5,weatherlink.com 1.10,2013-04-23 22:47:00,
2013-04-23 19:02:00,42.4,41.0,30.18,North,9,17.0,-999.0,96,-99.99,,,0.22,0,weatherlink.com 1.10,2013-04-23 23:02:00,
2013-04-23 19:17:00,42.3,41.0,30.17,North,355,15.0,-999.0,96,-99.99,,,0.22,0,weatherlink.com 1.10,2013-04-23 23:17:00,
2013-04-23 19:32:00,42.3,41.0,30.16,North,355,10.0,-999.0,96,-99.99,,,0.22,0,weatherlink.com 1.10,2013-04-23 23:32:00,
2013-04-23 19:47:00,42.4,41.0,30.16,NNE,16,8.0,-999.0,96,-99.99,,,0.22,0,weatherlink.com 1.10,2013-04-23 23:47:00,
2013-04-23 20:02:00,42.4,41.0,30.15,NNE,26,9.0,-999.0,96,-99.99,,,0.22,0,weatherlink.com 1.10,2013-04-24 00:02:00,
2013-04-23 20:17:00,42.4,41.0,30.15,NNW,348,8.0,-999.0,96,-99.99,,,0.22,0,weatherlink.com 1.10,2013-04-24 00:17:00,
2013-04-23 20:32:00,42.5,42.0,30.16,NNE,17,9.0,-999.0,96,-99.99,,,0.22,0,weatherlink.com 1.10,2013-04-24 00:32:00,
2013-04-23 20:47:00,42.5,42.0,30.15,North,5,8.0,-999.0,96,-99.99,,,0.22,0,weatherlink.com 1.10,2013-04-24 00:47:00,
2013-04-23 21:02:00,42.6,42.0,30.15,NNE,13,11.0,-999.0,96,-99.99,,,0.22,0,weatherlink.com 1.10,2013-04-24 01:02:00,
2013-04-23 21:17:00,42.7,42.0,30.14,North,360,7.0,-999.0,96,-99.99,,,0.22,0,weatherlink.com 1.10,2013-04-24 01:17:00,
2013-04-23 21:32:00,42.7,42.0,30.14,North,355,6.0,-999.0,96,-99.99,,,0.22,0,weatherlink.com 1.10,2013-04-24 01:32:00,
2013-04-23 21:47:00,42.7,42.0,30.13,NW,318,11.0,-999.0,97,-99.99,,,0.22,0,weatherlink.com 1.10,2013-04-24 01:47:00,
2013-04-23 22:03:00,42.8,42.0,30.11,NNE,12,8.0,-999.0,97,-99.99,,,0.22,0,weatherlink.com 1.10,2013-04-24 02:03:00,
2013-04-23 22:18:00,42.8,42.0,30.09,North,5,7.0,-999.0,97,-99.99,,,0.22,0,weatherlink.com 1.10,2013-04-24 02:18:00,
2013-04-23 22:33:00,42.9,42.0,30.09,NNE,12,9.0,-999.0,97,-99.99,,,0.22,0,weatherlink.com 1.10,2013-04-24 02:33:00,
2013-04-23 22:48:00,42.9,42.0,30.09,NNW,338,11.0,-999.0,97,-99.99,,,0.22,0,weatherlink.com 1.10,2013-04-24 02:48:00,
2013-04-23 23:03:00,43.0,42.0,30.08,North,350,9.0,-999.0,97,-99.99,,,0.22,0,weatherlink.com 1.10,2013-04-24 03:03:00,
2013-04-23 23:18:00,43.1,42.0,30.07,NNW,341,7.0,-999.0,97,-99.99,,,0.23,0,weatherlink.com 1.10,2013-04-24 03:18:00,
2013-04-23 23:33:00,43.1,42.0,30.06,North,360,7.0,-999.0,97,-99.99,,,0.24,0,weatherlink.com 1.10,2013-04-24 03:33:00,
2013-04-23 23:48:00,43.2,42.0,30.05,North,5,12.0,-999.0,97,-99.99,,,0.25,0,weatherlink.com 1.10,2013-04-24 03:48:00,